Location: *
(52.2090°N, 4.1550°W)
Time: 00:50:52
(UTC+00:00)

Cosmos 2151 - Pass Details

Date: 19 July 2019
Orbit: 581 x 602 km, 82.5° (Epoch: 21 August)

Event Time Altitude Azimuth Distance (km) Brightness Sun altitude
Rises 21:36:04 0° 207° (SSW) 2,834 6.2 -8.5°
Reaches altitude 10° 21:38:20 10° 214° (SW) 1,939 5.4 -8.7°
Maximum altitude 21:42:26 43° 287° (WNW) 852 4.3 -9.1°
Drops below altitude 10° 21:46:35 10° 360° (N) 1,960 6.5 -9.5°
Sets 21:48:54 0° 7° (N) 2,868 7.3 -9.7°
